Location: River House Observatory
(37.8577°N, 76.3548°W)
Time: 07:14:33
(UTC-05:00)

NOSS 3-1 (C) - Visible Passes

Search period start: 25 January 2015 00:00
Search period end: 04 February 2015 00:00
Orbit: 885 x 1324 km, 63.4° (Epoch: 23 January)

Date Brightness Start Highest point End Pass type
(mag) Time Alt. Az. Time Alt. Az. Time Alt. Az.
25 Jan 5.8 06:44:32 10° N 06:49:46 21° NE 06:55:30 10° E visible
26 Jan 5.9 05:59:57 10° N 06:03:45 15° NNE 06:08:00 10° ENE visible
27 Jan 6.1 05:15:57 10° N 05:17:36 11° NNE 05:19:32 10° NE visible
28 Jan 5.7 06:19:25 10° NNW 06:25:15 25° NE 06:31:39 10° E visible
29 Jan 5.9 05:34:41 10° N 05:39:21 18° NNE 05:44:29 10° ENE visible
30 Jan 6.1 04:50:16 10° N 04:53:16 13° NNE 04:56:38 10° NE visible
30 Jan 5.0 06:39:15 10° NNW 06:46:20 44° NE 06:54:00 10° ESE visible
31 Jan 5.5 05:54:20 10° NNW 06:00:42 30° NE 06:07:38 10° ESE visible
01 Feb 5.9 05:09:32 10° N 05:14:53 21° NE 05:20:45 10° E visible
02 Feb 6.1 04:24:54 10° N 04:28:54 15° NNE 04:33:18 10° ENE visible
02 Feb 4.7 06:14:17 10° NNW 06:21:38 54° NE 06:29:34 10° SE visible
03 Feb 6.2 03:40:48 10° N 03:42:44 11° NNE 03:44:59 10° NE visible
03 Feb 5.2 05:29:17 10° NNW 05:36:05 37° NE 05:43:28 10° ESE visible
